{"data":{"norad_id":24307,"intl_designator":"1996-053A","name":"INMARSAT 3-F2","alt_names":[],"object_type":"PAYLOAD","status":"ACTIVE","operator":null,"country":"IM","launch_date":"1996-09-06","launch_site_code":"TYMSC","launch_vehicle":null,"mission":null,"orbit_class":"UNKNOWN","rcs_meters":830.0351,"size_class":null,"mass_kg":null,"dimensions":null,"purposes":["comms"],"wikipedia_slug":null,"has_3d_model":false,"image_url":null,"decayed_at":null,"tle_current":{"epoch":"2026-09-18T12:08:28.000032Z","epoch_age_seconds":183543,"freshness":"STALE","line1":"1 24307U 96053A   26261.50587963  .00000113  00000+0  00000+0 0  9992","line2":"2 24307  10.0638  52.9607 0005694 123.2997  56.2790  0.99979168109852","mean_motion":0.99979168,"eccentricity":0.0005694,"inclination_deg":10.0638,"raan_deg":52.9607,"arg_perigee_deg":123.2997,"mean_anomaly_deg":56.279,"bstar":0,"rev_number":10985,"period_min":1440.300043305,"perigee_km":35844.770715418,"apogee_km":35892.881557038,"semimajor_km":42246.963136228,"source":"CELESTRAK","updated_at":"2026-09-20T09:00:35.116217Z"}}}